Wind_Speed
18 19 20 22 23 23 23 24 26 27 29 30 31 31 30 29 28 26 26 27 29 30 30 31 32 30 30 20 11 22 6 15 13 14 15 17 18 17 13 12 10 10 7 7 8
16 17 16 17 18 21 22 23 25 26 27 27 28 30 30 29 27 24 23 22 22 25 27 33 35 27 22 12 8 12 17 12 9 10 13 18 18 18 17 17 15 14 12 8 8
13 14 16 15 14 15 17 19 21 23 23 24 25 25 26 27 27 26 25 23 20 21 25 29 24 25 21 15 5 6 7 10 11 14 14 15 19 18 15 15 16 13 10 8 9
12 12 12 14 13 14 13 14 15 16 18 20 21 23 22 23 23 23 23 22 21 20 22 25 31 6 11 12 7 3 4 8 11 15 16 18 19 19 20 19 18 11 6 8 9
14 11 11 11 11 11 11 11 9 10 11 12 13 14 15 17 19 22 22 21 20 20 19 14 11 6 4 6 5 10 9 6 4 4 7 11 14 16 19 24 21 16 12 12 12
17 16 13 12 9 7 9 8 7 4 4 4 5 7 9 10 13 15 17 18 18 17 18 17 11 6 2 8 10 10 11 11 11 9 7 7 7 8 11 14 17 20 19 19 19
19 18 17 15 12 10 10 9 5 4 3 3 3 4 5 7 9 9 8 10 13 15 14 15 15 13 12 5 10 12 17 14 14 12 9 9 10 11 14 12 13 15 19 25 27
23 22 21 18 16 14 12 10 9 8 7 6 8 7 8 9 7 8 9 10 11 14 17 16 15 16 15 11 10 8 5 17 20 17 14 7 13 12 16 16 15 14 15 16 26
28 26 25 23 21 18 16 15 14 12 11 12 12 13 13 13 13 13 13 14 14 15 18 18 18 19 13 11 13 15 12 9 16 22 23 13 10 14 17 19 18 17 16 16 17
33 31 29 27 26 24 21 19 19 17 16 16 18 18 17 17 18 18 19 19 18 18 21 22 23 25 22 23 19 12 15 9 19 24 21 24 19 15 14 21 21 20 18 16 17
37 35 34 32 31 29 26 23 23 23 22 21 23 24 24 23 23 24 24 23 24 23 25 26 30 31 30 32 29 20 14 17 19 16 20 23 13 7 17 24 27 22 21 20 19
43 40 38 37 35 34 32 29 27 28 28 27 28 28 29 29 29 28 29 30 31 32 33 32 34 34 29 36 30 24 20 12 15 13 32 22 13 8 13 20 24 23 24 20 19
47 45 44 43 41 39 37 35 34 33 32 33 33 32 32 34 34 33 35 35 35 37 39 40 38 39 39 38 33 28 23 18 18 22 22 20 14 12 18 31 30 20 20 22 20
51 51 49 47 46 44 43 41 39 39 38 37 36 37 38 37 38 39 38 40 41 42 42 43 44 44 45 41 39 32 30 22 23 19 19 13 4 18 22 28 28 29 20 20 21
57 56 55 53 51 50 48 47 46 45 44 38 41 43 40 42 41 44 43 44 45 46 47 47 48 47 45 47 42 36 36 27 21 17 16 17 9 10 16 21 21 44 29 21 27
62 61 60 59 58 57 55 54 52 52 52 45 47 47 46 46 45 47 47 49 50 50 50 51 51 53 51 50 47 39 36 28 20 18 19 32 25 30 28 17 23 36 29 22 21
68 66 64 63 62 61 61 59 57 57 55 54 53 53 51 50 50 51 52 53 53 53 54 56 56 58 54 56 50 44 34 25 22 20 23 34 40 34 27 26 23 23 23 29 34
73 71 69 66 64 64 64 61 61 63 63 61 57 58 56 57 57 57 56 56 56 57 58 60 61 61 60 58 49 42 33 23 22 17 31 29 34 41 42 42 43 27 29 31 34
77 75 73 72 70 68 67 64 65 66 66 66 65 64 64 63 63 61 60 59 61 62 63 64 65 65 64 56 49 39 32 23 21 28 35 26 16 24 43 53 57 47 37 45 45
82 81 80 79 76 73 70 68 69 68 65 67 67 67 68 67 66 67 67 67 67 67 69 70 70 70 68 60 48 38 29 24 25 27 34 36 26 19 20 45 55 57 60 56 50
82 84 84 83 82 78 77 79 78 74 75 73 72 73 73 74 73 75 74 74 73 74 75 74 73 73 63 57 47 38 31 25 23 27 27 25 29 23 22 42 54 55 55 53 51
82 82 83 82 82 83 85 85 84 81 80 81 81 80 80 79 79 78 77 79 79 79 79 77 77 66 59 51 43 34 30 26 23 27 30 32 38 52 30 32 31 42 50 49 52
77 78 78 80 79 81 83 85 86 87 86 88 86 86 87 85 84 85 85 88 80 82 79 72 66 58 50 44 39 34 28 26 25 28 31 32 39 55 49 42 44 42 44 51 51
73 74 76 74 75 75 73 74 77 78 79 80 79 79 77 77 79 78 78 81 72 72 65 63 55 49 43 39 38 32 28 26 27 29 30 38 38 36 48 50 51 52 54 52 53
60 64 65 70 76 73 72 71 71 70 68 69 65 66 66 66 68 66 66 68 57 58 55 51 47 44 40 37 34 34 26 29 31 33 34 42 27 32 33 40 43 56 49 53 53
57 55 53 64 65 69 72 71 70 70 69 67 66 66 65 62 62 60 59 60 53 45 48 48 43 42 37 39 37 35 32 34 36 35 37 42 35 44 43 33 40 40 49 48 49
56 54 54 53 57 62 64 63 64 65 63 63 61 66 66 66 62 59 59 57 56 41 40 53 49 46 38 41 40 33 26 28 36 40 42 52 40 33 39 47 55 53 47 50 53
Wind_Direction
121 114 110 105 104 102 96 94 90 88 86 84 82 81 84 86 85 83 82 79 77 73 70 67 74 143 147 166 132 94 106 184 202 212 213 214 215 211 217 229 242 223 232 264 265
131 120 114 105 101 99 99 96 93 89 87 83 81 82 83 82 82 84 79 79 78 76 73 70 77 110 150 142 185 159 179 241 223 235 242 232 232 224 229 235 244 229 233 246 238
146 133 127 119 104 95 92 92 90 89 87 87 85 81 81 78 78 75 73 76 78 75 74 63 61 96 139 146 174 164 198 253 249 256 260 256 245 248 244 251 245 233 246 246 226
164 153 143 135 119 112 103 92 87 80 81 82 78 79 75 75 76 78 74 74 74 77 85 100 52 92 117 148 139 131 201 252 266 271 269 258 247 241 234 212 221 209 227 226 222
175 173 161 149 137 129 122 115 101 94 91 85 79 73 71 72 76 76 73 74 73 65 65 75 107 141 129 127 187 178 192 206 220 240 262 261 249 247 245 241 244 235 222 226 218
190 186 186 180 175 166 154 148 145 131 123 101 78 70 70 63 68 64 67 66 61 55 48 53 53 57 206 220 242 234 222 210 208 224 234 235 242 245 248 246 250 246 237 230 224
205 207 203 204 207 204 195 183 216 241 238 278 319 351 1 22 37 30 34 41 39 43 48 40 33 13 17 316 265 254 247 246 241 227 229 260 277 278 276 274 275 280 269 249 243
218 221 222 223 220 222 227 228 237 252 269 297 306 304 325 336 345 350 350 355 10 10 7 14 14 12 5 341 317 283 259 256 256 250 244 259 277 265 279 274 281 290 303 282 254
224 226 230 234 235 236 239 248 252 260 272 280 285 295 304 307 314 325 332 337 333 339 346 350 353 3 15 341 312 292 258 295 316 268 254 234 224 267 283 291 288 283 293 304 281
227 230 232 238 241 241 242 248 257 264 269 276 284 294 295 299 305 312 319 317 318 324 330 333 336 339 339 338 344 304 272 225 236 263 254 251 238 253 293 299 292 292 285 292 301
232 236 237 238 242 248 250 251 257 267 274 279 284 288 291 295 297 302 308 311 314 317 322 324 328 334 332 333 333 334 303 281 256 267 274 255 249 316 294 276 291 303 285 278 295
232 236 239 241 242 247 251 255 257 261 270 275 280 284 288 292 297 303 308 311 316 319 319 322 332 334 329 328 330 330 326 289 268 194 229 256 207 279 233 276 283 289 298 285 288
234 237 240 243 245 248 252 256 258 260 266 271 279 284 288 292 297 303 307 309 312 314 317 321 325 327 331 335 330 326 313 302 273 248 242 240 233 246 180 264 262 270 276 293 294
236 238 241 244 246 248 251 254 258 261 264 268 274 279 283 288 292 297 301 302 305 308 311 315 319 323 328 327 327 325 314 304 280 264 251 214 172 218 235 242 255 272 267 276 279
236 238 241 243 246 248 251 254 257 260 263 265 268 274 279 283 289 293 296 299 301 303 307 310 314 318 322 324 324 319 315 302 288 261 239 173 184 232 172 253 249 290 269 261 264
238 239 241 243 245 247 249 253 256 259 262 262 263 269 274 279 283 287 290 292 296 298 301 305 309 313 316 317 319 314 311 300 278 248 206 173 173 177 185 162 250 275 268 243 250
238 239 241 243 245 246 249 251 254 257 262 262 264 267 272 274 277 281 284 288 291 293 297 300 303 308 311 314 315 311 304 296 272 243 226 205 189 183 200 221 205 267 273 245 251
240 241 242 242 244 247 249 251 254 255 259 263 264 267 269 270 274 278 281 284 287 290 292 295 300 304 307 311 312 307 300 283 258 230 224 211 209 215 219 227 237 277 282 274 267
244 244 244 245 245 247 249 250 252 255 257 260 261 263 266 269 272 275 277 280 284 287 290 293 297 301 304 308 306 301 292 275 244 234 223 216 198 225 222 219 226 243 253 269 275
244 245 245 247 248 248 249 250 253 256 259 260 262 264 266 269 271 273 276 278 280 283 286 290 294 298 301 302 302 295 280 261 243 234 219 214 202 220 251 246 235 246 258 254 257
244 245 247 248 250 252 251 251 253 255 256 259 261 263 265 268 269 273 275 277 279 282 286 289 293 296 297 298 296 288 274 258 245 237 230 221 204 183 148 241 250 252 261 257 256
246 246 247 248 249 250 251 252 255 257 258 260 262 264 265 267 270 272 273 276 278 282 284 287 290 291 292 293 288 280 267 254 245 239 227 208 200 205 224 261 266 248 251 256 256
246 247 248 249 251 250 250 252 255 257 259 261 263 264 265 267 269 271 273 274 278 278 282 284 286 286 287 284 278 270 263 256 248 244 236 222 212 217 227 247 260 262 267 260 259
246 246 247 249 250 251 252 253 254 255 257 259 261 263 265 266 267 268 271 273 275 276 280 280 281 281 278 274 270 271 260 251 246 245 240 237 205 227 238 249 265 269 267 269 265
247 249 250 249 249 251 252 252 254 255 255 257 259 260 261 262 264 267 268 271 272 274 275 275 273 272 269 265 265 260 255 261 250 247 239 241 214 186 199 246 267 264 253 253 260
245 248 245 247 247 248 250 252 253 254 254 255 255 258 258 259 260 262 264 268 273 271 271 269 267 265 264 262 257 254 251 251 257 254 248 241 225 206 206 241 253 257 258 256 253
243 244 246 249 248 247 248 249 251 254 255 254 254 254 255 256 259 260 261 260 261 256 261 270 268 265 261 262 259 257 261 267 267 262 256 254 229 218 241 238 254 250 251 254 258
Height
10997 10998 10999 11000 11001 11001 11001 11002 11002 11002 11002 11002 11002 11002 11003 11003 11004 11005 11006 11007 11007 11006 11003 11001 10999 11000 11004 11007 11014 11027 11028 11025 11027 11024 11024 11024 11024 11024 11024 11025 11025 11026 11026 11026 11026
11000 11001 11002 11003 11004 11005 11006 11006 11006 11006 11006 11007 11007 11008 11008 11009 11010 11011 11012 11012 11012 11010 11010 11009 11011 11013 11017 11013 11016 11024 11026 11025 11025 11024 11024 11024 11024 11023 11023 11023 11023 11023 11024 11024 11025
11002 11004 11006 11006 11007 11007 11008 11009 11010 11010 11011 11012 11013 11013 11013 11014 11015 11015 11016 11017 11016 11015 11017 11019 11021 11025 11028 11023 11023 11024 11025 11026 11024 11023 11023 11022 11022 11022 11021 11021 11021 11022 11022 11022 11023
11003 11005 11007 11009 11011 11011 11012 11012 11013 11014 11015 11016 11016 11017 11018 11018 11019 11019 11020 11021 11021 11020 11023 11025 11029 11033 11026 11025 11024 11023 11021 11022 11021 11021 11020 11021 11020 11021 11020 11019 11018 11018 11019 11021 11022
11004 11006 11007 11009 11012 11014 11015 11016 11016 11017 11018 11019 11020 11020 11021 11022 11022 11023 11024 11024 11025 11024 11024 11028 11029 11028 11027 11026 11021 11020 11020 11020 11020 11019 11019 11019 11018 11017 11017 11017 11016 11016 11017 11018 11020
11005 11007 11008 11010 11011 11013 11016 11017 11018 11019 11020 11021 11022 11023 11024 11025 11024 11025 11026 11027 11028 11028 11027 11028 11028 11029 11029 11027 11024 11024 11022 11019 11018 11018 11018 11017 11017 11016 11016 11015 11015 11015 11015 11016 11017
11004 11007 11009 11011 11012 11013 11016 11018 11019 11020 11021 11021 11022 11022 11023 11024 11025 11026 11026 11027 11028 11029 11030 11029 11028 11026 11028 11024 11024 11023 11023 11021 11019 11017 11016 11017 11017 11017 11016 11015 11014 11013 11012 11013 11014
11003 11005 11008 11010 11012 11014 11014 11017 11019 11019 11019 11020 11020 11022 11022 11023 11024 11026 11026 11026 11027 11027 11027 11027 11027 11027 11024 11022 11021 11019 11018 11017 11015 11015 11014 11015 11016 11014 11014 11014 11013 11012 11011 11011 11010
11001 11004 11005 11007 11010 11012 11014 11014 11017 11018 11018 11019 11019 11020 11021 11021 11022 11023 11024 11024 11025 11025 11025 11025 11025 11024 11025 11023 11020 11018 11016 11017 11014 11013 11012 11011 11012 11012 11014 11013 11012 11011 11010 11009 11008
10997 11001 11003 11005 11006 11008 11011 11013 11013 11015 11015 11016 11017 11017 11019 11019 11019 11019 11020 11021 11021 11022 11022 11022 11022 11020 11020 11017 11018 11017 11014 11014 11007 11008 11009 11010 11010 11012 11012 11012 11011 11010 11009 11008 11007
10992 10995 10999 11002 11003 11004 11006 11009 11010 11010 11011 11013 11013 11014 11015 11015 11016 11017 11017 11017 11017 11018 11018 11017 11016 11015 11012 11010 11009 11010 11010 11007 11009 11008 11008 11009 11011 11009 11008 11007 11009 11009 11007 11006 11005
10987 10989 10992 10995 10998 11000 11001 11003 11005 11006 11007 11008 11009 11010 11011 11011 11012 11012 11012 11012 11011 11011 11011 11012 11011 11010 11009 11007 11003 11002 11001 11002 11004 11008 11000 11006 11008 11006 11003 10998 11003 11005 11005 11003 11003
10980 10983 10986 10989 10992 10994 10996 10997 10999 11001 11003 11003 11003 11004 11005 11005 11006 11007 11007 11007 11006 11006 11005 11004 11005 11004 11004 11000 10997 10997 10996 10995 10995 10997 10999 10999 11003 11005 11006 10995 11000 11001 11000 11001 11000
10972 10975 10978 10981 10984 10987 10989 10991 10993 10994 10996 10998 10998 10997 10998 11000 11000 11001 11002 11002 11002 11001 11001 11000 10997 10996 10995 10994 10993 10991 10989 10989 10986 10990 10992 10995 10995 10997 10995 10998 10999 10995 10995 10996 10997
10963 10967 10970 10973 10976 10979 10981 10983 10985 10986 10989 10994 10991 10991 10993 10993 10995 10995 10996 10996 10995 10995 10994 10994 10993 10993 10992 10988 10986 10987 10983 10982 10981 10983 10986 10992 10991 10996 10992 10992 10992 10987 10987 10993 10992
10954 10957 10961 10964 10967 10970 10972 10975 10977 10978 10979 10985 10984 10984 10986 10987 10988 10987 10988 10988 10988 10988 10987 10986 10986 10985 10985 10983 10981 10979 10977 10975 10976 10976 10981 10983 10987 10985 10988 10989 10984 10984 10982 10987 10988
10942 10946 10951 10954 10957 10960 10963 10967 10969 10968 10972 10974 10976 10976 10978 10979 10980 10979 10981 10981 10980 10979 10979 10978 10977 10977 10978 10976 10975 10971 10969 10969 10968 10969 10973 10982 10983 10983 10984 10988 10982 10980 10980 10983 10985
10931 10935 10939 10943 10947 10949 10954 10958 10959 10959 10961 10963 10967 10967 10969 10969 10970 10971 10971 10972 10971 10970 10970 10969 10969 10969 10969 10968 10967 10963 10962 10962 10961 10966 10964 10971 10980 10979 10981 10978 10977 10978 10978 10979 10982
10918 10922 10927 10931 10936 10939 10943 10948 10945 10947 10950 10952 10954 10956 10957 10959 10959 10960 10961 10962 10961 10961 10960 10959 10960 10958 10958 10959 10957 10956 10953 10955 10956 10953 10958 10970 10976 10980 10977 10968 10968 10968 10972 10974 10976
10903 10908 10914 10917 10923 10928 10934 10934 10933 10936 10941 10941 10942 10945 10945 10946 10949 10949 10950 10951 10951 10950 10949 10949 10950 10949 10948 10946 10947 10946 10947 10947 10948 10950 10952 10960 10971 10978 10972 10970 10966 10967 10968 10969 10970
10887 10892 10900 10903 10908 10916 10920 10917 10920 10926 10926 10929 10930 10931 10933 10932 10936 10936 10938 10938 10939 10938 10938 10938 10939 10938 10938 10936 10935 10936 10936 10938 10941 10943 10947 10956 10958 10967 10964 10957 10950 10954 10957 10960 10962
10870 10876 10881 10887 10893 10898 10904 10900 10904 10911 10912 10913 10915 10919 10918 10920 10920 10922 10923 10922 10926 10927 10925 10926 10927 10927 10927 10925 10924 10926 10927 10929 10932 10933 10936 10940 10946 10946 10945 10938 10938 10944 10947 10948 10953
10852 10861 10863 10867 10875 10879 10882 10886 10889 10894 10897 10897 10902 10904 10903 10906 10907 10906 10907 10903 10917 10911 10914 10914 10915 10914 10916 10915 10914 10916 10920 10921 10923 10924 10927 10931 10934 10931 10934 10932 10932 10933 10934 10936 10939
10834 10842 10841 10853 10855 10860 10866 10868 10870 10876 10880 10880 10884 10886 10889 10890 10888 10891 10892 10886 10901 10897 10903 10900 10902 10903 10904 10904 10902 10906 10909 10911 10913 10915 10917 10915 10928 10934 10933 10930 10929 10927 10925 10923 10927
10818 10821 10835 10838 10835 10843 10848 10850 10855 10859 10863 10863 10868 10869 10871 10873 10872 10877 10877 10873 10889 10886 10888 10889 10891 10892 10893 10894 10895 10896 10901 10901 10903 10905 10906 10901 10922 10927 10911 10917 10916 10918 10915 10914 10915
10807 10809 10815 10810 10822 10824 10826 10832 10837 10840 10845 10849 10853 10853 10855 10860 10859 10862 10864 10864 10871 10879 10878 10876 10880 10880 10884 10883 10885 10887 10893 10896 10896 10895 10895 10894 10905 10911 10900 10900 10901 10902 10905 10904 10904
10791 10796 10798 10802 10804 10807 10811 10817 10821 10823 10828 10833 10839 10837 10839 10840 10849 10851 10850 10854 10855 10875 10874 10870 10868 10869 10874 10871 10873 10882 10887 10884 10886 10889 10886 10872 10893 10900 10899 10897 10888 10888 10890 10892 10893